[[{"header":{"parameterUnit":"m.s-1","parameterCategory":1,"la1":30.2991,"la2":30.254,"lo1":-89.0895,"lo2":-89.0444,"dy":0.0017,"dx":0.0017,"nx":28,"ny":28,"refTime":"2024-05-25T09:00:00:Z","depth":0,"parameterNumber":2,"parameterNumberName":"U-component_of_WINDS"},"data":[0,0,0,0,0,0,0,0,0,0,0,0,0,0,0,0,0,0,0,0,0,0,0,0,0,0,0,0,0,0,0,0,0,0,0,0,0,0,0,0,0,0,0,0,0,0,0,0,0,0,0,0,0,0,0,0,0,0,0.7947,0.7948,0,0.7959,0.7959,0.7959,0.7935,0.7934,0.7933,0.7932,0.7943,0.7944,0.7945,0,0,0,0,0,0,0,0,0,0,0,0,0,0.7903,0.7904,0.7947,0.7948,0.7948,0.7959,0.7959,0.7959,0.7935,0.7934,0.7933,0.7932,0.7943,0.7944,0.7945,0,0,0,0,0,0,0,0,0,0,0,0,0,0.7919,0.7904,0.7947,0.7937,0.7936,0.7959,0.7959,0.7959,0.7935,0.7934,0.7933,0.7931,0.7942,0.7944,0.7945,0.7978,0,0,0.795,0.7951,0,0,0,0,0,0,0,0,0.7918,0.7921,0.7938,0.7938,0.7937,0.7944,0.7947,0.7965,0.7935,0.7935,0.7932,0.7931,0.7944,0.7946,0.795,0.7979,0.7979,0.795,0.7951,0.7952,0.7952,0,0,0,0,0,0,0,0.7917,0.792,0.7952,0.7939,0.7938,0.7931,0.7932,0.795,0.7946,0.7935,0.7933,0.7935,0.7944,0.7949,0.795,0.7979,0.795,0.7951,0.7952,0.7953,0.8033,0.8034,0,0,0,0,0,0,0.7918,0.7919,0.7951,0.7952,0.7924,0.7933,0.7934,0.7943,0.7946,0.7945,0.7936,0.7934,0.7947,0.7949,0.7951,0.7987,0.7952,0.7953,0.7954,0.8032,0.8033,0.8034,0,0,0,0,0,0,0.7917,0.7921,0.7951,0.7935,0.7939,0.7935,0.7945,0.7944,0.7949,0.7947,0.7946,0.7942,0.7946,0.7948,0.7971,0.7988,0.7954,0.7955,0.803,0.8032,0.8034,0.8063,0,0,0,0,0,0,0.7916,0.7921,0.7934,0.7936,0.794,0.7972,0.7946,0.7945,0.7952,0.7949,0.7952,0.7952,0.7945,0.7969,0.7973,0.7989,0.7956,0.8029,0.8031,0.8033,0.806,0.8065,0.807,0,0,0,0,0,0.7914,0.7942,0.7934,0.7938,0.7956,0.7973,0.7975,0.7967,0.7953,0.7966,0.7964,0.7952,0.7985,0.7971,0.7975,0.7993,0.8028,0.803,0.8033,0.8058,0.8064,0.8069,0,0,0,0,0,0,0.7942,0.7942,0.7934,0.7963,0.7968,0.7969,0.7985,0.7975,0.7984,0.7981,0.797,0.7971,0.7995,0.7996,0.7981,0.8023,0.8004,0.8008,0.8022,0.8028,0.8032,0.8031,0.7958,0,0,0,0,0,0.7952,0.7966,0.7965,0.7991,0.7994,0.7989,0.7996,0.7989,0.7994,0.7996,0.7996,0.8001,0.8012,0.802,0.8031,0.806,0.806,0.8074,0.8079,0.8083,0.8085,0.8099,0.8105,0.8043,0.8043,0.8043,0,0,0.7972,0.7973,0.7983,0.7997,0.8,0.8014,0.7991,0.8007,0.8017,0.7999,0.8019,0.802,0.8024,0.805,0.8061,0.8051,0.8102,0.8086,0.8089,0.809,0.8102,0.8108,0.8113,0.8045,0.8045,0.8044,0,0,0.8015,0.8018,0.8039,0.8042,0.8047,0.8043,0.8048,0.805,0.8049,0.807,0.8056,0.8067,0.8088,0.8091,0.8095,0.8137,0.8126,0.8141,0.8165,0.8179,0.8184,0.8188,0.8201,0.8206,0.8144,0.8145,0.8145,0,0.8039,0.806,0.8051,0.8068,0.8073,0.8057,0.8077,0.8081,0.8089,0.8092,0.8081,0.8105,0.8108,0.8132,0.8143,0.8147,0.8151,0.814,0.8184,0.8188,0.8192,0.8204,0.8209,0.8146,0.8146,0.8146,0.8146,0,0.8088,0.8103,0.8119,0.8126,0.8134,0.8152,0.8145,0.8154,0.8146,0.8143,0.8163,0.8165,0.8175,0.818,0.8174,0.8204,0.8198,0.8185,0.8165,0.8199,0.8211,0.8216,0.8149,0.8148,0.8148,0.8147,0,0,0.815,0.8151,0.8157,0.8159,0.8162,0.8173,0.819,0.8199,0.8206,0.8212,0.8224,0.8241,0.8229,0.8234,0.8227,0.8239,0.827,0.8225,0.8225,0.8232,0.8302,0.831,0.8315,0.8263,0.8264,0.8265,0.8301,0,0.8191,0.822,0.8212,0.824,0.8252,0.8236,0.8251,0.8254,0.8251,0.8261,0.8258,0.8269,0.8254,0.8256,0.8267,0.8264,0.8284,0.8262,0.8273,0.8274,0.8271,0.8322,0.8331,0.8365,0.8305,0.8306,0.8307,0,0.8243,0.825,0.8279,0.8278,0.8283,0.8297,0.8303,0.8313,0.8315,0.8312,0.8317,0.8307,0.8323,0.8303,0.8324,0.8309,0.8313,0.8312,0.8313,0.8313,0.8291,0.8321,0.8376,0.838,0.8314,0.8313,0.8313,0,0.8282,0.8299,0.8318,0.8321,0.8321,0.833,0.8331,0.8332,0.8337,0.8343,0.8346,0.8354,0.8358,0.8364,0.8356,0.8343,0.8376,0.8357,0.8373,0.8373,0.838,0.838,0.8434,0.8386,0.8386,0.8385,0.8385,0,0.8328,0.8347,0.8336,0.8348,0.8367,0.8357,0.8376,0.8375,0.8376,0.8386,0.8373,0.8383,0.8373,0.8382,0.8376,0.8392,0.8395,0.8392,0.839,0.8392,0.8392,0.8394,0.8391,0.8387,0.8387,0.8386,0.8386,0,0.8375,0.8369,0.8389,0.8386,0.8386,0.8401,0.8398,0.8409,0.8405,0.8418,0.842,0.8414,0.8424,0.8416,0.8426,0.8422,0.8443,0.8439,0.8442,0.844,0.8456,0.8454,0.8513,0.8519,0.8468,0.8469,0.8469,0,0.8404,0.8418,0.8417,0.8422,0.8423,0.8433,0.8438,0.8429,0.8434,0.8437,0.8447,0.8455,0.8461,0.8477,0.8472,0.8479,0.8474,0.8494,0.8475,0.8476,0.8472,0.8471,0.8471,0.8497,0.8498,0.8498,0.8499,0,0.8456,0.8451,0.8459,0.8465,0.8471,0.8476,0.8479,0.8485,0.8474,0.8481,0.849,0.8495,0.8504,0.8512,0.8517,0.8517,0.8506,0.8505,0.8509,0.8511,0.8511,0.8509,0.8451,0.8503,0.8503,0.8503,0.8502,0.8502,0.8494,0.8504,0.8504,0.8512,0.8514,0.8517,0.8525,0.8522,0.8529,0.8536,0.853,0.854,0.8541,0.8546,0.8547,0.8555,0.8547,0.8553,0.8554,0.8555,0.8557,0.8511,0.8556,0.8556,0.8556,0.8556,0.8556,0,0.8543,0.8541,0.8549,0.8554,0.856,0.8549,0.8552,0.8557,0.8567,0.8568,0.8574,0.8583,0.8591,0.8587,0.8593,0.8599,0.8594,0.8601,0.86,0.86,0.8565,0.856,0.8605,0.8605,0.8605,0.8605,0.8605,0.8605,0.8569,0.8585,0.858,0.8596,0.8595,0.8605,0.8607,0.8609,0.861,0.8621,0.8627,0.8624,0.8623,0.8629,0.8634,0.8633,0.8635,0.8643,0.864,0.8607,0.8602,0.8598,0.8593,0.8644,0.8644,0.8674,0.8674,0.8674]},{"header":{"parameterUnit":"m.s-1","parameterCategory":1,"la1":30.2991,"la2":30.254,"lo1":-89.0895,"lo2":-89.0444,"dy":0.0017,"dx":0.0017,"nx":28,"ny":28,"refTime":"2024-05-25T09:00:00:Z","depth":0,"parameterNumber":3,"parameterNumberName":"V-component_of_WINDS"},"data":[0,0,0,0,0,0,0,0,0,0,0,0,0,0,0,0,0,0,0,0,0,0,0,0,0,0,0,0,0,0,0,0,0,0,0,0,0,0,0,0,0,0,0,0,0,0,0,0,0,0,0,0,0,0,0,0,0,0,5.0594,5.0594,0,5.0579,5.0579,5.0579,5.0522,5.0521,5.052,5.0519,5.0502,5.0503,5.0503,0,0,0,0,0,0,0,0,0,0,0,0,0,5.0569,5.057,5.0594,5.0594,5.0594,5.058,5.0579,5.0579,5.0523,5.0521,5.052,5.0518,5.0502,5.0503,5.0504,0,0,0,0,0,0,0,0,0,0,0,0,0,5.057,5.057,5.0594,5.0564,5.0561,5.058,5.0579,5.0579,5.0523,5.0521,5.0519,5.0517,5.0501,5.0503,5.0504,5.055,0,0,5.0507,5.0508,0,0,0,0,0,0,0,0,5.057,5.0571,5.0568,5.0566,5.0563,5.0551,5.0564,5.0569,5.0524,5.0537,5.0519,5.0516,5.052,5.0519,5.0521,5.0549,5.0548,5.0507,5.0508,5.0508,5.0509,0,0,0,0,0,0,0,5.057,5.0571,5.0588,5.0568,5.0565,5.055,5.0548,5.0565,5.054,5.0536,5.0532,5.0531,5.0518,5.052,5.052,5.0548,5.0507,5.0508,5.0509,5.0509,5.0609,5.0611,0,0,0,0,0,0,5.0574,5.0571,5.0589,5.0588,5.0562,5.0552,5.0549,5.0557,5.0539,5.0535,5.0533,5.0528,5.0519,5.0519,5.0519,5.0569,5.0508,5.0509,5.051,5.0607,5.0609,5.0611,0,0,0,0,0,0,5.0574,5.0577,5.0589,5.0578,5.0579,5.0554,5.0563,5.0557,5.0559,5.0537,5.0532,5.054,5.0517,5.0517,5.0542,5.0567,5.051,5.0511,5.0604,5.0607,5.061,5.067,0,0,0,0,0,0,5.0574,5.0577,5.0595,5.0579,5.058,5.0613,5.0564,5.0558,5.0562,5.0556,5.0542,5.0538,5.0516,5.054,5.0543,5.0568,5.0512,5.0602,5.0606,5.0609,5.0666,5.0675,5.0683,0,0,0,0,0,5.0573,5.0613,5.0596,5.0599,5.0602,5.0615,5.0615,5.059,5.0564,5.0581,5.0566,5.0538,5.0565,5.0543,5.0546,5.0572,5.06,5.0605,5.0609,5.0662,5.0673,5.0683,0,0,0,0,0,0,5.0633,5.0611,5.0592,5.0628,5.0624,5.0606,5.0627,5.0603,5.0605,5.06,5.0567,5.0565,5.0593,5.0585,5.0561,5.0613,5.0577,5.0583,5.0617,5.0627,5.0636,5.0636,5.0513,0,0,0,0,0,5.065,5.0664,5.0643,5.0677,5.0676,5.0652,5.0657,5.0637,5.0631,5.0629,5.0616,5.061,5.0617,5.0622,5.0627,5.0665,5.0659,5.0684,5.0692,5.0699,5.0703,5.0719,5.0729,5.0626,5.0626,5.0626,0,0,5.0686,5.0676,5.0686,5.0689,5.0683,5.0696,5.0651,5.0667,5.0675,5.0631,5.0652,5.0643,5.0634,5.0664,5.0677,5.0659,5.0731,5.0705,5.0711,5.0711,5.0725,5.0734,5.0743,5.0629,5.0628,5.0628,0,0,5.0758,5.0753,5.0779,5.0774,5.0766,5.0749,5.0755,5.074,5.0732,5.0753,5.0719,5.0728,5.0741,5.0735,5.0734,5.0801,5.0774,5.0804,5.0847,5.0863,5.0871,5.0878,5.0898,5.0907,5.0808,5.0808,5.0808,0,5.0804,5.0823,5.0795,5.0813,5.0813,5.0774,5.0798,5.0795,5.0789,5.0789,5.0769,5.0782,5.0774,5.0801,5.0817,5.0819,5.0822,5.0804,5.0872,5.0879,5.0885,5.0904,5.0912,5.0812,5.0811,5.0811,5.0811,0,5.0877,5.0891,5.0913,5.0907,5.091,5.0932,5.0906,5.0912,5.0892,5.0877,5.0897,5.0886,5.0886,5.0891,5.0872,5.0914,5.0903,5.0878,5.0841,5.0898,5.0916,5.0923,5.0817,5.0815,5.0814,5.0814,0,0,5.0987,5.0964,5.0973,5.0968,5.0955,5.0964,5.0982,5.0983,5.0988,5.0985,5.0997,5.1008,5.0984,5.0983,5.0962,5.0976,5.1026,5.0949,5.0948,5.0961,5.1068,5.1085,5.1094,5.1009,5.101,5.1011,5.1067,0,5.1053,5.1083,5.1058,5.1092,5.1102,5.1064,5.1079,5.1072,5.1058,5.1063,5.1047,5.1054,5.1023,5.1022,5.1034,5.1017,5.1046,5.1013,5.1018,5.1018,5.1019,5.1104,5.1123,5.1177,5.1075,5.1076,5.1077,0,5.1134,5.1133,5.1169,5.115,5.1154,5.1168,5.1165,5.1171,5.1161,5.115,5.1147,5.1122,5.1136,5.1101,5.1119,5.1097,5.1097,5.1089,5.109,5.1088,5.1049,5.1101,5.1194,5.1201,5.1088,5.1087,5.1086,0,5.1206,5.1215,5.1236,5.1234,5.1214,5.1224,5.1216,5.1204,5.1205,5.1202,5.1202,5.1201,5.12,5.1199,5.1173,5.115,5.1192,5.1156,5.1181,5.1181,5.119,5.119,5.1281,5.1195,5.1195,5.1194,5.1194,0,5.1281,5.1304,5.1267,5.1281,5.1303,5.1273,5.1296,5.1284,5.1274,5.1282,5.1249,5.1257,5.1224,5.1228,5.1208,5.1223,5.1224,5.1213,5.1207,5.1215,5.1216,5.1213,5.1207,5.1196,5.1196,5.1196,5.1195,0,5.1366,5.1343,5.1363,5.1342,5.1337,5.1355,5.1336,5.1346,5.1329,5.134,5.134,5.1314,5.1316,5.1291,5.1289,5.1275,5.1299,5.1288,5.1303,5.1298,5.1323,5.132,5.1414,5.1424,5.1334,5.1335,5.1335,0,5.1414,5.143,5.141,5.1413,5.1407,5.1413,5.1413,5.1384,5.1385,5.1373,5.1384,5.1384,5.1382,5.1388,5.1368,5.1365,5.1352,5.1385,5.1351,5.1357,5.1349,5.1347,5.1347,5.1392,5.1393,5.1394,5.1394,0,5.1501,5.1488,5.1491,5.1488,5.1489,5.1486,5.148,5.1484,5.1452,5.1455,5.1457,5.1456,5.1453,5.1452,5.1445,5.1435,5.1408,5.1405,5.141,5.1417,5.1424,5.1418,5.1319,5.1403,5.1402,5.1402,5.1401,5.1401,5.1567,5.1578,5.1565,5.1568,5.156,5.1555,5.1562,5.1546,5.1547,5.1542,5.1525,5.153,5.1516,5.1504,5.1496,5.1498,5.1482,5.149,5.1491,5.1493,5.1497,5.1426,5.1497,5.1497,5.1497,5.1496,5.1496,0,5.165,5.1639,5.1642,5.1634,5.1635,5.1611,5.1603,5.1605,5.1609,5.1599,5.1598,5.1599,5.1597,5.1576,5.1572,5.1577,5.1565,5.1577,5.1575,5.1572,5.1513,5.1508,5.1587,5.1587,5.1587,5.1587,5.1587,5.1587,5.1693,5.1709,5.1695,5.1706,5.1695,5.1699,5.1696,5.169,5.1681,5.1684,5.1683,5.1669,5.1654,5.1647,5.1644,5.1638,5.1636,5.1652,5.1641,5.1586,5.1577,5.1569,5.1563,5.1653,5.1653,5.17,5.17,5.1701]}]]